Hourly Data Report for July 11, 2004

SHERBROOKE A
QUEBEC

45°26'00.000" N
71°41'00.000" W
241.40 m
7028124
71610
YSC

Download Data

Hourly Data (July 2004)
Hourly Data Report for July 11, 2004
TIME
LST
Temp Definition
°C
Dew Point Definition
°C
Rel Hum Definition
%
Precip. Amount Definition
mm

Wind Dir Definition
10's deg

Wind Spd Definition
km/h
Visibility Definition
km
Stn Press Definition
kPa
Hmdx Definition


Wind Chill Definition


Weather Definition


00:00 12.4 11.4 94     0 15.0 99.05      
01:00 10.4 9.3 93     0 15.0 99.09      
02:00 9.7 8.3 91     0 11.3 99.09      
03:00 8.6 7.9 95     0 0.5 99.13      
04:00 10.0 9.3 95   9 6 0.2 99.14      
05:00 9.5 8.8 95   7 4 0.3 99.19      
06:00 10.7 10.2 97   11 4 0.2 99.27      
07:00 12.0 11.5 97     0 0.8 99.30     Fog
08:00 13.7 13.1 96     0 19.3 99.29     Mainly Clear
09:00 16.7 14.5 87   27 6 24.1 99.29     Mainly Clear
10:00 18.3 13.5 74   18 7 24.1 99.22     Mainly Clear
11:00 21.6 13.5 60   27 6 24.1 99.17 25   Mainly Clear
12:00 22.8 13.4 55   28 7 24.1 99.15 26   Mainly Clear
13:00 23.7 13.4 52   29 7 24.1 99.13 27   Mainly Clear
14:00 24.2 13.7 52   24 13 24.1 99.16 27   Mainly Clear
15:00 24.0 13.6 52   25 11 24.1 99.15 27   Mainly Clear
16:00 23.8 13.5 52   28 9 24.1 99.13 27   Mainly Clear
17:00 23.3 14.0 56   31 6 15.0 99.10 27    
18:00 21.1 15.5 70   34 4 15.0 99.08 25    
19:00 19.7 16.7 83   36 4 15.0 99.08      
20:00 16.4 14.4 88     0 15.0 99.12      
21:00 15.1 13.4 90     0 15.0 99.14      
22:00 14.7 13.7 94   10 6 15.0 99.14      
23:00 14.2 13.0 92   8 4 15.0 99.12      

Notes on Data Quality.

Legend

  • E = Estimated
  • M = Missing
  • NA = Not Available*
  • [empty] = Indicates an unobserved value
Date modified: